Terug naar catalogus

STARLINK-32346

ActiefCommunicatieVLEO
NORAD 61849·PAYLOAD·🇺🇸 United States

Gelanceerd Nov 7, 2024 vanaf Cape Canaveral Space Force Station

Loading…

Volgende Passages (komende 24 uur)

TLE

VersSource: CelesTrak SupGP

Epoch: Sep 14, 2026, 22:20 UTC

1 61849C 24202E   26257.93104167  .00025240  00000+0  91433-3 0  2573
2 61849  42.9994 238.2070 0001367 263.1807 228.9131 15.27561506    18

Volg STARLINK-32346 in realtime met AllMySat

Download on the App Store